Location: Wapato
(46.4478°N, 120.4212°W)
Time: 23:03:14
(UTC+00:00)

S-56A Canister/Altair - Pass Details

Date: 14 May 2026
Orbit: 633 x 2484 km, 38.9° (Epoch: 7 June)

Event Time Altitude Azimuth Distance (km) Brightness Sun altitude
Exits shadow 11:09:09 12° 205° (SSW) 2,958 9.9 -11.9°
Drops below altitude 10° 11:11:37 10° 187° (S) 3,346 10.3 -11.6°
Sets 11:17:30 0° 162° (SSE) 4,816 11.4 -10.9°
